Wind_Speed
6 6 6 5 4 4 3 4 3 3 3 3 3 2 2 1 1 0 0 1 0 1 1 1 2 3 3 3 4 5 6 6 7 7 7 7 8 9 9 9 10 10 10
5 5 5 4 4 3 3 3 3 3 3 2 2 2 2 1 1 1 1 1 1 2 2 3 3 4 4 4 5 6 7 7 6 7 7 8 8 9 9 10 10 10 10
4 4 3 3 3 3 4 4 3 3 2 1 1 1 1 1 1 1 2 2 3 3 4 4 5 5 6 6 6 7 7 7 7 7 7 8 9 9 10 11 11 11 12
3 3 3 3 3 3 3 3 3 2 2 1 1 1 2 2 2 2 2 3 3 4 5 5 6 6 6 7 7 7 7 8 8 8 8 8 9 10 11 11 12 12 12
2 2 2 2 2 3 3 2 2 2 1 0 0 1 2 3 3 3 4 4 4 4 5 7 7 7 8 8 8 8 9 9 10 9 9 9 10 10 11 11 11 11 12
1 1 1 1 1 2 2 2 1 1 1 1 1 2 2 3 4 4 5 5 5 5 6 6 7 8 8 8 8 9 9 10 10 10 10 10 10 10 10 11 11 11 12
2 2 2 2 2 2 2 2 3 3 2 2 3 3 4 4 5 5 5 6 6 6 6 7 7 8 8 8 9 10 10 11 11 10 10 10 10 11 11 11 11 11 12
4 3 3 3 4 4 4 4 4 4 4 4 3 4 5 6 6 7 7 7 7 7 8 8 8 8 9 9 10 10 11 12 12 12 11 11 11 11 12 12 12 12 13
5 5 4 4 5 6 6 6 5 5 5 5 5 6 6 7 8 8 8 8 8 9 9 9 9 9 10 10 10 11 12 12 12 12 13 13 13 13 12 13 13 14 14
6 5 6 6 6 7 8 7 7 7 7 7 7 8 8 8 9 9 9 9 10 10 10 10 10 11 11 12 12 13 13 14 14 14 15 15 15 15 14 15 15 15 15
7 6 7 7 8 8 8 8 8 8 8 9 9 9 9 9 9 9 10 11 12 12 12 12 12 12 12 13 14 14 14 15 15 15 16 16 16 16 16 16 16 16 16
8 8 8 8 8 8 8 9 9 9 9 10 10 11 10 10 10 11 11 12 12 13 13 13 13 14 14 14 15 15 15 15 16 16 16 16 17 17 17 17 17 18 18
9 9 9 9 9 10 10 10 10 11 11 11 11 11 12 11 11 12 12 13 13 14 15 14 14 15 16 15 15 16 16 16 17 17 18 18 18 18 18 19 19 18 18
11 11 11 11 11 11 11 11 11 12 12 13 13 12 12 12 13 14 14 14 15 15 15 15 15 15 16 17 17 17 17 18 18 18 18 19 19 19 19 20 19 19 19
12 12 13 13 12 13 13 13 13 13 13 13 13 13 13 13 14 15 15 15 15 15 15 16 16 16 17 17 18 18 18 19 19 20 20 20 20 20 20 20 21 21 20
14 14 15 15 14 14 14 14 14 14 14 14 15 15 14 15 15 15 16 16 16 16 16 16 17 18 18 19 19 19 20 20 20 21 21 21 21 21 21 21 21 21 21
16 16 16 17 16 16 16 16 15 16 16 16 16 16 16 16 16 16 17 18 18 18 18 18 18 19 19 20 20 20 21 21 21 22 22 22 22 21 21 22 21 22 22
17 17 18 18 18 18 18 18 17 17 17 17 16 17 17 17 18 19 19 19 20 20 20 20 20 21 22 22 22 22 23 23 23 23 23 23 23 23 22 22 22 22 23
18 19 19 19 19 19 19 19 19 19 19 18 18 18 19 19 20 20 21 21 21 21 22 22 23 23 24 24 23 24 24 25 25 24 24 24 24 24 24 23 23 23 24
19 19 19 19 19 19 20 20 19 19 19 20 20 20 19 19 20 21 21 22 22 23 23 23 24 24 25 25 25 25 25 26 25 26 26 25 25 24 24 24 24 23 23
19 19 19 19 18 19 19 19 20 20 20 20 20 20 21 20 21 22 22 22 23 24 24 24 25 25 25 25 26 25 26 26 26 26 26 26 25 25 25 25 25 24 24
20 20 19 20 20 19 19 19 20 20 20 21 21 21 22 21 21 22 22 23 24 24 25 25 26 26 26 26 26 26 26 25 26 26 26 26 26 26 26 26 26 25 25
21 21 21 20 20 20 19 19 20 21 20 21 22 22 22 22 23 23 23 23 24 25 26 26 26 26 26 26 27 27 26 25 25 25 25 25 25 26 26 26 26 25 25
21 21 21 22 22 21 20 20 20 20 20 21 22 23 23 23 23 24 25 25 26 26 27 27 26 27 27 27 27 28 26 25 25 25 25 25 25 25 25 26 25 24 24
21 22 23 22 22 21 22 22 21 21 21 21 22 23 24 24 24 25 26 26 27 27 27 26 26 26 27 27 27 27 26 26 25 24 24 24 23 24 24 24 24 23 23
22 22 23 22 22 22 23 23 23 22 23 23 23 23 24 24 25 25 26 27 27 28 27 27 26 26 26 27 27 27 26 24 23 23 23 23 23 24 24 24 23 23 23
Wind_Direction
133 123 120 123 120 121 128 139 156 158 165 150 137 138 147 144 121 149 215 205 236 277 274 289 305 317 311 310 304 295 294 288 280 276 274 277 277 270 266 264 261 259 259
136 131 117 117 117 118 122 137 152 153 159 159 160 167 175 194 206 230 269 267 271 278 272 276 287 293 300 304 306 303 301 293 287 282 276 276 276 270 266 264 265 263 259
137 129 105 107 118 126 124 128 138 140 140 156 190 198 202 216 271 282 289 291 288 289 285 283 291 295 300 303 299 301 299 296 293 287 282 278 278 275 271 266 264 263 260
123 120 118 120 117 134 140 136 129 128 127 144 203 247 249 251 271 287 298 301 296 294 289 281 284 290 296 301 303 305 302 299 293 287 285 285 282 278 278 276 269 264 260
133 124 150 140 135 145 155 154 129 122 132 148 289 267 263 274 278 286 291 289 294 299 296 283 280 286 291 294 298 300 302 302 300 294 286 286 281 278 280 278 274 269 263
169 176 183 165 170 187 197 198 187 195 207 252 298 305 296 285 286 284 286 289 290 293 299 295 289 292 295 294 294 297 301 303 303 299 290 287 286 283 282 280 274 271 270
225 229 233 223 235 248 252 247 242 246 259 272 283 290 294 290 291 290 289 289 290 291 294 299 299 297 298 297 296 297 300 301 301 298 294 291 289 285 283 278 275 272 271
239 242 239 248 258 263 264 265 260 258 272 283 290 290 287 288 285 287 287 286 290 292 294 295 295 298 300 298 298 299 302 302 299 296 292 288 289 289 284 278 274 274 275
238 243 250 257 259 261 268 270 267 268 275 285 288 291 290 288 287 286 289 291 290 292 292 291 289 291 293 296 298 298 299 301 299 294 291 290 290 288 283 278 273 273 274
243 246 250 261 269 268 268 267 269 277 282 286 286 288 287 285 286 289 291 295 292 290 289 289 288 287 289 292 293 295 296 297 294 294 293 291 291 287 282 279 277 276 275
254 258 266 272 276 275 270 270 277 282 284 289 289 287 285 286 287 290 294 295 293 290 290 288 288 287 289 292 291 293 294 294 295 294 294 295 294 291 285 282 280 278 276
266 268 268 270 278 278 276 274 275 277 280 287 288 286 285 285 287 288 293 295 296 294 292 290 289 288 289 290 291 291 292 293 295 294 294 295 294 292 288 284 283 279 275
275 276 275 274 279 282 278 279 279 280 279 284 284 285 286 288 290 291 294 294 296 296 294 291 291 290 290 291 291 293 293 293 294 293 292 292 292 290 288 286 283 280 275
274 272 274 275 277 280 280 281 281 283 283 283 281 282 284 286 288 291 293 296 298 299 299 297 293 290 290 291 293 293 293 295 296 294 292 291 290 288 286 286 283 279 277
273 270 270 272 275 276 278 280 280 283 285 285 283 283 284 286 288 291 294 296 296 297 298 296 295 294 292 293 294 295 294 296 296 295 293 292 291 289 287 285 282 281 279
273 271 270 271 271 273 277 280 283 284 284 284 285 283 283 285 288 290 293 295 297 296 294 294 295 296 295 293 294 295 294 294 295 295 294 293 292 290 288 287 284 281 281
274 275 274 274 271 272 274 277 280 281 284 285 285 281 281 284 287 289 291 291 293 295 294 293 294 294 295 292 291 292 293 294 295 293 292 293 291 290 289 289 287 283 280
275 276 277 278 275 272 272 273 277 278 281 284 283 283 282 284 286 288 289 290 292 293 294 292 293 295 294 293 291 292 292 293 294 294 291 291 290 290 289 289 288 284 281
273 275 277 278 277 274 274 274 275 276 277 279 280 282 283 285 287 288 289 288 289 290 292 292 293 294 295 294 293 292 293 293 293 293 291 289 289 288 287 288 287 284 282
274 275 277 279 276 275 275 276 276 278 279 278 280 282 285 286 288 289 289 290 288 288 290 292 293 294 294 293 294 294 293 291 292 290 288 287 287 286 285 287 287 285 283
273 274 277 277 276 278 276 276 275 278 280 281 280 281 283 285 287 289 290 290 289 288 289 291 291 291 293 293 293 293 294 291 290 288 287 287 286 285 285 287 287 285 283
272 273 275 275 276 279 278 279 277 278 279 282 281 280 282 284 287 289 291 290 290 292 291 290 290 291 292 293 293 295 294 292 291 289 288 286 285 285 286 286 286 285 282
272 273 275 273 273 275 278 280 279 278 279 281 281 281 283 286 287 289 290 291 292 292 293 294 292 292 292 293 293 296 296 293 291 290 288 287 286 285 285 286 286 285 281
273 274 273 272 271 273 276 278 280 282 282 284 283 283 285 287 289 289 290 292 292 292 292 292 293 294 294 293 293 295 295 294 292 291 289 287 286 286 285 285 283 283 281
274 275 274 273 273 274 276 279 280 282 284 286 287 287 288 289 290 292 292 294 294 295 296 295 294 294 294 295 295 295 294 295 294 292 290 288 287 287 287 286 284 283 282
275 275 274 274 274 276 277 278 280 282 284 286 288 289 289 290 290 291 292 294 294 294 294 295 295 294 292 294 296 296 295 294 293 292 289 288 289 289 288 286 284 283 284
Height
5904 5904 5904 5904 5904 5905 5905 5905 5905 5905 5905 5906 5906 5906 5906 5905 5905 5905 5905 5905 5905 5905 5905 5904 5904 5903 5903 5902 5902 5901 5901 5900 5900 5899 5899 5899 5898 5898 5897 5897 5897 5897 5897
5905 5905 5905 5905 5905 5905 5905 5905 5905 5905 5905 5906 5906 5906 5905 5905 5905 5905 5905 5905 5904 5904 5904 5904 5903 5903 5902 5901 5901 5900 5900 5899 5898 5898 5897 5897 5896 5895 5895 5894 5894 5894 5894
5906 5905 5905 5905 5905 5904 5905 5905 5905 5905 5906 5906 5906 5905 5905 5905 5905 5905 5905 5904 5904 5904 5903 5903 5903 5902 5901 5901 5900 5899 5898 5897 5896 5895 5895 5894 5894 5893 5893 5892 5892 5892 5892
5906 5906 5906 5906 5905 5905 5905 5906 5906 5906 5906 5905 5905 5905 5905 5905 5905 5904 5904 5904 5903 5903 5902 5902 5901 5901 5900 5899 5898 5897 5897 5896 5894 5894 5893 5892 5891 5891 5890 5889 5889 5889 5889
5906 5906 5906 5906 5906 5906 5906 5906 5906 5906 5906 5905 5905 5905 5905 5904 5904 5904 5903 5903 5902 5902 5901 5900 5900 5899 5898 5898 5897 5896 5895 5894 5893 5892 5891 5890 5889 5888 5888 5887 5886 5886 5886
5907 5906 5906 5906 5906 5906 5906 5906 5906 5906 5905 5905 5905 5904 5904 5904 5903 5903 5902 5902 5901 5901 5900 5899 5898 5897 5897 5896 5895 5894 5893 5892 5891 5889 5888 5887 5886 5886 5885 5884 5884 5883 5883
5906 5906 5906 5906 5906 5906 5906 5906 5906 5905 5905 5905 5904 5904 5903 5903 5902 5902 5901 5901 5900 5899 5898 5897 5897 5896 5895 5894 5893 5892 5891 5890 5889 5887 5886 5885 5884 5883 5882 5882 5881 5881 5880
5905 5906 5906 5905 5905 5905 5905 5905 5905 5905 5904 5904 5904 5903 5903 5902 5901 5900 5900 5899 5898 5898 5897 5896 5895 5894 5893 5892 5891 5890 5889 5888 5886 5885 5883 5882 5881 5880 5879 5878 5878 5878 5877
5905 5905 5905 5904 5904 5904 5904 5904 5904 5903 5903 5903 5902 5902 5901 5901 5900 5899 5898 5897 5896 5895 5895 5894 5893 5892 5891 5890 5889 5888 5886 5885 5883 5882 5881 5879 5878 5877 5876 5875 5875 5874 5874
5904 5904 5904 5903 5903 5903 5903 5902 5902 5902 5901 5901 5900 5900 5899 5898 5898 5897 5896 5895 5894 5893 5892 5891 5890 5889 5888 5887 5886 5885 5883 5882 5881 5879 5877 5876 5875 5874 5872 5872 5871 5870 5869
5902 5902 5902 5902 5902 5901 5901 5901 5900 5900 5900 5899 5898 5898 5897 5896 5895 5895 5894 5893 5891 5890 5889 5888 5887 5886 5885 5884 5883 5882 5880 5879 5877 5876 5874 5873 5871 5870 5869 5868 5867 5866 5865
5901 5900 5900 5900 5900 5899 5899 5899 5898 5898 5897 5897 5896 5895 5895 5894 5893 5892 5891 5890 5889 5887 5886 5885 5884 5883 5882 5881 5879 5878 5877 5875 5874 5872 5871 5869 5867 5866 5864 5863 5862 5862 5861
5899 5899 5898 5898 5897 5897 5897 5896 5896 5895 5895 5894 5893 5893 5892 5891 5890 5889 5888 5887 5886 5885 5883 5882 5880 5879 5878 5877 5876 5874 5873 5871 5870 5868 5867 5865 5863 5862 5860 5859 5858 5857 5856
5897 5896 5896 5896 5895 5894 5894 5893 5893 5892 5892 5891 5891 5890 5889 5888 5887 5886 5885 5884 5882 5881 5879 5878 5876 5875 5874 5873 5872 5870 5869 5867 5866 5864 5862 5861 5859 5857 5856 5854 5853 5852 5851
5894 5893 5893 5893 5892 5891 5891 5890 5890 5889 5888 5888 5887 5886 5885 5885 5884 5883 5882 5880 5879 5878 5876 5874 5873 5871 5870 5869 5867 5865 5864 5862 5861 5859 5857 5856 5854 5853 5851 5849 5848 5847 5846
5891 5890 5890 5889 5889 5888 5888 5887 5886 5886 5885 5884 5883 5883 5882 5881 5880 5879 5878 5876 5875 5874 5872 5871 5869 5867 5865 5864 5862 5861 5859 5858 5856 5854 5852 5850 5849 5847 5846 5844 5843 5842 5841
5887 5886 5886 5885 5884 5884 5883 5883 5882 5882 5881 5880 5879 5878 5877 5876 5875 5874 5873 5872 5871 5869 5868 5866 5864 5863 5861 5859 5857 5855 5854 5852 5851 5849 5847 5845 5843 5842 5840 5839 5837 5836 5835
5883 5882 5881 5881 5880 5879 5879 5878 5878 5877 5877 5876 5875 5874 5873 5872 5871 5869 5868 5867 5866 5865 5863 5861 5860 5858 5856 5853 5851 5850 5848 5846 5844 5843 5841 5839 5837 5836 5835 5833 5832 5831 5830
5878 5878 5877 5876 5875 5875 5874 5873 5873 5872 5872 5871 5870 5869 5868 5867 5866 5864 5863 5862 5860 5859 5857 5856 5854 5852 5850 5847 5846 5843 5841 5839 5837 5836 5834 5833 5831 5830 5828 5827 5826 5825 5824
5873 5873 5872 5871 5870 5870 5869 5868 5868 5867 5867 5866 5865 5864 5863 5862 5860 5859 5857 5856 5854 5853 5852 5850 5848 5846 5843 5841 5839 5837 5835 5832 5831 5829 5827 5826 5825 5823 5822 5821 5820 5819 5817
5869 5868 5867 5866 5865 5864 5863 5863 5862 5862 5861 5860 5860 5859 5857 5856 5855 5853 5852 5850 5849 5847 5845 5843 5841 5839 5837 5835 5833 5830 5828 5825 5823 5821 5820 5819 5818 5817 5815 5814 5813 5812 5811
5864 5863 5862 5861 5860 5859 5858 5857 5857 5856 5855 5855 5854 5853 5852 5850 5849 5848 5846 5844 5843 5841 5839 5837 5835 5833 5830 5828 5825 5823 5821 5819 5817 5815 5813 5812 5811 5810 5808 5808 5806 5805 5804
5858 5857 5857 5856 5855 5854 5853 5852 5852 5851 5850 5849 5848 5847 5846 5845 5843 5842 5840 5838 5836 5834 5833 5831 5828 5826 5823 5821 5819 5816 5813 5811 5809 5807 5806 5805 5803 5802 5801 5801 5799 5798 5797
5852 5852 5851 5850 5849 5849 5848 5847 5846 5845 5844 5843 5842 5841 5840 5838 5837 5835 5834 5832 5830 5828 5826 5823 5821 5819 5816 5814 5812 5809 5807 5804 5802 5801 5799 5798 5796 5795 5794 5793 5792 5791 5790
5846 5845 5845 5844 5843 5843 5842 5841 5841 5840 5839 5837 5836 5835 5834 5832 5831 5829 5827 5825 5823 5821 5818 5816 5814 5812 5809 5807 5805 5802 5800 5798 5796 5794 5792 5790 5789 5788 5787 5786 5785 5784 5783
5840 5840 5839 5838 5837 5837 5836 5836 5835 5834 5833 5831 5830 5828 5827 5826 5824 5822 5820 5818 5816 5814 5811 5809 5807 5805 5802 5800 5798 5795 5793 5791 5789 5787 5785 5784 5782 5781 5780 5779 5778 5777 5776